Regional Weather Roundup
Issued by NWS Cleveland, OH

Home | Current Version | Previous Version | Graphics & Text | Print | Product List | Glossary On
Versions: 1 2 3 4 5 6 7 8 9 10 11 12 13 14 15 16 17 18 19 20 21 22 23 24 25 26 27 28 29 30 31 32 33 34 35 36 37 38 39 40 41 42 43 44 45 46 47 48 49 50
000
ASUS41 KCLE 191910
RWRCLE
OHIO REGIONAL WEATHER ROUNDUP
NATIONAL WEATHER SERVICE WILMINGTON, OH
200 PM EST FRI DEC 19 2014

NOTE: "FAIR" INDICATES FEW OR NO CLOUDS BELOW 12,000 FEET WITH NO
SIGNIFICANT WEATHER AND/OR OBSTRUCTIONS TO VISIBILITY.

OHZ001>008-015>018-024>027-034-035-043-044-192000-
   NORTHWEST OHIO

CITY           SKY/WX    TMP DP  RH WIND       PRES   REMARKS
DEFIANCE       CLOUDY    31  22  69 CALM      30.24F
FINDLAY        CLOUDY    31  25  78 W6        30.23F WCI  25
TOLEDO EXPRESS CLOUDY    30  25  80 N3        30.24F
TOLEDO METCALF CLOUDY    30  24  78 NE3       30.26F
LIMA           CLOUDY    32  24  72 CALM      30.23F
$$

OHZ009>014-019>023-028>033-038-089-192000-
   NORTHEAST OHIO

CITY           SKY/WX    TMP DP  RH WIND       PRES   REMARKS
CLE-HOPKINS    CLOUDY    31  21  66 N9        30.26R WCI  23
CLE-LAKEFRONT  CLOUDY    32  23  69 NW8       30.24R WCI  25
CUY CO. ARPT   CLOUDY    34  23  64 N9        30.24R WCI  26
LORAIN-ELYRIA  CLOUDY    30  23  75 N8        30.24S WCI  22
ASHTABULA      CLOUDY    30  20  66 NW9       30.21S WCI  22
AKRON-CANTON   CLOUDY    31  23  72 NW8       30.20S WCI  23
WOOSTER        CLOUDY    29  25  85 NW8       30.22S WCI  21
MANSFIELD      NOT AVBL
YOUNGSTOWN     CLOUDY    31  22  69 NW9       30.18F WCI  23
$$

OHZ042-051>053-060>062-070>072-077>081-192000-
  SOUTHWEST OHIO

CITY           SKY/WX    TMP DP  RH WIND       PRES   REMARKS
CINC-COVINGTON CLOUDY    30  19  63 CALM      30.25F
CINC-LUNKEN    CLOUDY    30  21  69 S3        30.29S
HAMILTON       CLOUDY    31  22  69 CALM      30.28F
DAYTON         CLOUDY    30  23  75 SW5       30.25S WCI  25
WRIGHT-PAT AFB CLOUDY    30  22  72 W3        30.25S
DAYTON GENERAL CLOUDY    30  21  69 CALM      30.24F
WILMINGTON     CLOUDY    30  21  69 NE5       30.23F WCI  25
$$

OHZ036-037-039>041-045>050-054>059-063>069-073>076-082>088-192000-
  CENTRAL AND SOUTHEAST OHIO

CITY           SKY/WX    TMP DP  RH WIND       PRES   REMARKS
COLUMBUS       CLOUDY    30  23  75 CALM      30.24F
OSU AIRPORT    CLOUDY    30  23  75 CALM      30.23S
BOLTON FIELD   CLOUDY    30  25  80 CALM      30.24F
RICKENBACK AFB CLOUDY    30  23  75 CALM      30.24F
NEWARK         CLOUDY    31  23  72 NW3       30.23F
MARION         CLOUDY    29  24  82 W5        30.23F HAZE    WCI  24
LANCASTER      CLOUDY    30  24  78 CALM      30.24F
ZANESVILLE     CLOUDY    29  23  78 SW3       30.24S
NEW PHILLY     CLOUDY    31  25  78 NW6       30.23S WCI  25
$$


USA.gov is the U.S. government's official web portal to all federal, state and local government web resources and services.